TRYAD 1

operational
NORAD ID: 66691 Int'l Des: NNA 2025-276 Owner: AUBU/UAH Country: US
NOTLE

About TRYAD 1

Description loading...

Live Position

Loading 3D Globe...

Upcoming Passes

Altitude History

Altitude vs Time

uPlot chart will show altitude changes over time

Two-Line Element Set

1 66691U 25276AB 26014.18404037 .00005002 00000-0 25031-3 0 9991
2 66691 97.4391 90.3771 0005225 163.3200 196.8207 15.17852745 7048
Epoch: Jan 14, 2026 • Age: 13 hours

Current Status

Altitude 524.9 km
Velocity 7.61 km/s
Sub-Earth Point 80.56°N, 23.74°E
Launch Date Nov 28, 2025
Age 0.1 years
Type other

Technical Details

Classification Payload
Mass 12.00 kg
Dry Mass 12.00 kg
Total Mass 12.00 kg
Length 0.30 m
Diameter 0.20 m
Span 0.30 m
Shape Box
Manufacturer AUBU
Bus Type Cubesat 6U
Phase Status In Orbit
Owner/State AUBU/UAH/US

Large Constellations

Loading constellations...